• In Germany
  • List of Countries
  • For 7 days
  • Water Temperature
  • Satellite Maps
  • Weather Map
  • Weather Widgets
  • user-avatar
    Login

    Hourly Weather Sumgayit

    Today, 27 May, Saturday

    Time Temperature Precipitation Wind Pressure Humidity
    00:00 +18°C° 0 mm 1 mps 739 mmHg 74%
    01:00 +16°C° 0 mm 1 mps 739 mmHg 74%
    02:00 +16°C° 0 mm 1 mps 739 mmHg 75%
    03:00 +16°C° 0 mm 1 mps 738 mmHg 74%
    04:00 +16°C° 0 mm 2 mps 739 mmHg 72%
    05:00 +17°C° 0 mm 2 mps 739 mmHg 70%
    06:00 +17°C° 0 mm 3 mps 739 mmHg 68%
    07:00 +19°C° 0 mm 3 mps 739 mmHg 62%
    08:00 +21°C° 0 mm 3 mps 739 mmHg 56%
    09:00 +22°C° 0 mm 3 mps 739 mmHg 50%
    10:00 +24°C° 0 mm 3 mps 738 mmHg 48%
    11:00 +25°C° 0 mm 4 mps 738 mmHg 45%
    12:00 +26°C° 0 mm 4 mps 738 mmHg 43%
    13:00 +26°C° 0 mm 4 mps 737 mmHg 43%
    14:00 +26°C° 0 mm 4 mps 737 mmHg 44%
    15:00 +26°C° 0 mm 5 mps 737 mmHg 44%
    16:00 +25°C° 0.1 mm 4 mps 736 mmHg 49%
    17:00 +23°C° 0.1 mm 4 mps 736 mmHg 53%
    18:00 +22°C° 0.1 mm 4 mps 736 mmHg 57%
    19:00 +21°C° 0.1 mm 4 mps 736 mmHg 62%
    20:00 +19°C° 0.1 mm 4 mps 736 mmHg 67%
    21:00 +18°C° 0.1 mm 3 mps 737 mmHg 72%
    22:00 +18°C° 0 mm 4 mps 737 mmHg 73%
    23:00 +18°C° 0 mm 4 mps 737 mmHg 74%

    Tomorrow, 28 May, Sunday

    Time Temperature Precipitation Wind Pressure Humidity
    00:00 +17°C° 0 mm 4 mps 737 mmHg 76%
    01:00 +17°C° 0 mm 4 mps 737 mmHg 76%
    02:00 +17°C° 0 mm 3 mps 737 mmHg 75%
    03:00 +17°C° 0 mm 3 mps 737 mmHg 75%
    04:00 +17°C° 0 mm 3 mps 737 mmHg 73%
    05:00 +18°C° 0 mm 3 mps 737 mmHg 70%
    06:00 +18°C° 0 mm 3 mps 737 mmHg 67%
    07:00 +19°C° 0 mm 3 mps 738 mmHg 61%
    08:00 +21°C° 0 mm 3 mps 738 mmHg 55%
    09:00 +22°C° 0 mm 3 mps 738 mmHg 48%
    10:00 +25°C° 0 mm 3 mps 738 mmHg 44%
    11:00 +26°C° 0 mm 4 mps 738 mmHg 40%
    12:00 +27°C° 0 mm 4 mps 738 mmHg 36%
    13:00 +27°C° 0 mm 5 mps 738 mmHg 36%
    14:00 +27°C° 0 mm 6 mps 738 mmHg 36%
    15:00 +26°C° 0 mm 6 mps 737 mmHg 36%
    16:00 +24°C° 0 mm 6 mps 737 mmHg 38%
    17:00 +23°C° 0 mm 6 mps 738 mmHg 40%
    18:00 +22°C° 0 mm 6 mps 738 mmHg 43%
    19:00 +21°C° 0 mm 6 mps 738 mmHg 45%
    20:00 +21°C° 0 mm 5 mps 739 mmHg 47%
    21:00 +20°C° 0 mm 4 mps 739 mmHg 49%
    22:00 +19°C° 0 mm 4 mps 739 mmHg 49%
    23:00 +19°C° 0 mm 3 mps 739 mmHg 50%

    Day after tomorrow, 29 May, Monday

    Time Temperature Precipitation Wind Pressure Humidity
    00:00 +19°C° 0 mm 3 mps 740 mmHg 51%
    01:00 +19°C° 0 mm 3 mps 740 mmHg 52%
    02:00 +18°C° 0 mm 3 mps 740 mmHg 53%
    03:00 +18°C° 0 mm 2 mps 740 mmHg 54%
    04:00 +19°C° 0 mm 3 mps 741 mmHg 52%
    05:00 +20°C° 0 mm 3 mps 741 mmHg 50%
    06:00 +20°C° 0 mm 3 mps 742 mmHg 49%
    07:00 +22°C° 0 mm 4 mps 742 mmHg 48%
    08:00 +23°C° 0 mm 4 mps 743 mmHg 47%
    09:00 +25°C° 0 mm 5 mps 744 mmHg 46%
    10:00 +26°C° 0 mm 6 mps 744 mmHg 45%
    11:00 +26°C° 0 mm 6 mps 744 mmHg 44%
    12:00 +27°C° 0 mm 7 mps 744 mmHg 44%
    13:00 +26°C° 0 mm 7 mps 744 mmHg 46%
    14:00 +26°C° 0 mm 7 mps 744 mmHg 48%
    15:00 +24°C° 0 mm 8 mps 743 mmHg 51%
    16:00 +23°C° 0 mm 8 mps 743 mmHg 55%
    17:00 +22°C° 0 mm 7 mps 743 mmHg 59%
    18:00 +21°C° 0 mm 7 mps 744 mmHg 64%
    19:00 +20°C° 0 mm 7 mps 744 mmHg 66%
    20:00 +19°C° 0 mm 6 mps 744 mmHg 68%
    21:00 +17°C° 0 mm 6 mps 744 mmHg 70%
    22:00 +17°C° 0 mm 5 mps 744 mmHg 70%
    23:00 +18°C° 0 mm 4 mps 744 mmHg 71%

    30 May, Tuesday

    Time Temperature Precipitation Wind Pressure Humidity
    00:00 +17°C° 0 mm 4 mps 744 mmHg 71%
    01:00 +17°C° 0 mm 3 mps 743 mmHg 71%
    02:00 +17°C° 0 mm 2 mps 743 mmHg 71%
    03:00 +16°C° 0 mm 2 mps 743 mmHg 70%
    04:00 +17°C° 0 mm 2 mps 743 mmHg 66%
    05:00 +18°C° 0 mm 2 mps 743 mmHg 62%
    06:00 +18°C° 0 mm 2 mps 743 mmHg 57%
    07:00 +20°C° 0 mm 2 mps 743 mmHg 52%
    08:00 +21°C° 0 mm 3 mps 743 mmHg 47%
    09:00 +23°C° 0 mm 4 mps 742 mmHg 43%
    10:00 +25°C° 0 mm 4 mps 742 mmHg 40%
    11:00 +26°C° 0 mm 5 mps 741 mmHg 38%
    12:00 +27°C° 0 mm 5 mps 741 mmHg 35%
    13:00 +28°C° 0 mm 6 mps 740 mmHg 35%
    14:00 +28°C° 0 mm 6 mps 740 mmHg 34%
    15:00 +28°C° 0 mm 6 mps 739 mmHg 34%
    16:00 +28°C° 0 mm 6 mps 739 mmHg 37%
    17:00 +27°C° 0 mm 6 mps 739 mmHg 39%
    18:00 +26°C° 0 mm 5 mps 739 mmHg 42%
    19:00 +23°C° 0 mm 4 mps 739 mmHg 46%
    20:00 +22°C° 0 mm 3 mps 740 mmHg 51%
    21:00 +21°C° 0 mm 2 mps 740 mmHg 55%
    22:00 +20°C° 0 mm 2 mps 740 mmHg 56%
    23:00 +20°C° 0 mm 2 mps 739 mmHg 57%

    31 May, Wednesday

    Time Temperature Precipitation Wind Pressure Humidity
    00:00 +20°C° 0 mm 2 mps 739 mmHg 58%
    01:00 +19°C° 0 mm 2 mps 739 mmHg 59%
    02:00 +19°C° 0 mm 2 mps 739 mmHg 60%
    03:00 +18°C° 0 mm 2 mps 739 mmHg 62%
    04:00 +19°C° 0 mm 2 mps 739 mmHg 59%
    05:00 +20°C° 0 mm 3 mps 739 mmHg 57%
    06:00 +21°C° 0 mm 3 mps 739 mmHg 55%
    07:00 +22°C° 0 mm 3 mps 740 mmHg 51%
    08:00 +24°C° 0 mm 3 mps 740 mmHg 46%
    09:00 +26°C° 0 mm 4 mps 740 mmHg 42%
    10:00 +26°C° 0 mm 4 mps 739 mmHg 39%
    11:00 +27°C° 0 mm 4 mps 739 mmHg 37%
    12:00 +28°C° 0 mm 4 mps 739 mmHg 34%
    13:00 +28°C° 0 mm 5 mps 739 mmHg 34%
    14:00 +28°C° 0 mm 5 mps 738 mmHg 34%
    15:00 +28°C° 0 mm 6 mps 738 mmHg 35%
    16:00 +27°C° 0 mm 5 mps 738 mmHg 37%
    17:00 +25°C° 0 mm 5 mps 738 mmHg 40%
    18:00 +23°C° 0 mm 5 mps 738 mmHg 43%
    19:00 +22°C° 0 mm 5 mps 738 mmHg 45%
    20:00 +21°C° 0 mm 4 mps 738 mmHg 47%
    21:00 +20°C° 0 mm 4 mps 738 mmHg 49%
    22:00 +20°C° 0 mm 3 mps 738 mmHg 50%
    23:00 +20°C° 0 mm 3 mps 737 mmHg 50%

    1 June, Thursday

    Time Temperature Precipitation Wind Pressure Humidity
    00:00 +20°C° 0 mm 3 mps 737 mmHg 51%
    01:00 +19°C° 0.1 mm 3 mps 737 mmHg 53%
    02:00 +19°C° 0.1 mm 2 mps 736 mmHg 54%
    03:00 +19°C° 0.1 mm 2 mps 736 mmHg 56%
    04:00 +20°C° 0 mm 2 mps 736 mmHg 54%
    05:00 +20°C° 0 mm 2 mps 736 mmHg 52%
    06:00 +21°C° 0 mm 2 mps 736 mmHg 50%
    07:00 +23°C° 0 mm 2 mps 736 mmHg 46%
    08:00 +24°C° 0 mm 1 mps 735 mmHg 43%
    09:00 +26°C° 0 mm 1 mps 735 mmHg 39%
    10:00 +27°C° 0 mm 2 mps 735 mmHg 36%
    11:00 +28°C° 0 mm 2 mps 734 mmHg 33%
    12:00 +29°C° 0 mm 3 mps 734 mmHg 31%
    13:00 +29°C° 0 mm 3 mps 733 mmHg 30%
    14:00 +29°C° 0 mm 3 mps 733 mmHg 30%
    15:00 +29°C° 0 mm 4 mps 732 mmHg 30%
    16:00 +28°C° 0 mm 4 mps 732 mmHg 33%
    17:00 +27°C° 0 mm 4 mps 732 mmHg 36%
    18:00 +26°C° 0 mm 4 mps 732 mmHg 40%
    19:00 +23°C° 0.1 mm 4 mps 732 mmHg 44%
    20:00 +22°C° 0.1 mm 3 mps 732 mmHg 48%
    21:00 +21°C° 0.1 mm 3 mps 732 mmHg 52%
    22:00 +21°C° 0.2 mm 3 mps 732 mmHg 53%
    23:00 +20°C° 0.2 mm 3 mps 732 mmHg 55%
    Show more